When you browse on this site, cookies collect data to enhance your experience and personalize the content and advertising you see.
Visit our Privacy Policy to learn more. By continuing to use the site, you agree to this use of cookies and data.
  • In France
  • List of Countries
  • For 7 days
  • Water Temperature
  • Satellite Maps
  • Weather Map
  • Weather Widgets
  • user-avatar
    Login

    Hourly Weather Vidin

    Today, 22 March, Friday

    Time Temperature Precipitation Wind Pressure Humidity
    00:00 +10°C° 0 mm 1 mps 771 mmHg 76%
    01:00 +9°C° 0 mm 1 mps 771 mmHg 77%
    02:00 +9°C° 0 mm 1 mps 771 mmHg 76%
    03:00 +9°C° 0 mm 1 mps 771 mmHg 76%
    04:00 +8°C° 0 mm 1 mps 770 mmHg 76%
    05:00 +8°C° 0 mm 1 mps 770 mmHg 76%
    06:00 +9°C° 0 mm 1 mps 770 mmHg 73%
    07:00 +9°C° 0 mm 1 mps 770 mmHg 69%
    08:00 +9°C° 0 mm 0 mps 770 mmHg 64%
    09:00 +10°C° 0 mm 0 mps 770 mmHg 58%
    10:00 +12°C° 0 mm 0 mps 770 mmHg 52%
    11:00 +13°C° 0 mm 0 mps 770 mmHg 46%
    12:00 +14°C° 0 mm 0 mps 769 mmHg 43%
    13:00 +16°C° 0 mm 1 mps 769 mmHg 39%
    14:00 +18°C° 0 mm 1 mps 768 mmHg 36%
    15:00 +18°C° 0 mm 1 mps 768 mmHg 35%
    16:00 +19°C° 0 mm 1 mps 767 mmHg 34%
    17:00 +19°C° 0 mm 1 mps 767 mmHg 33%
    18:00 +16°C° 0 mm 1 mps 767 mmHg 37%
    19:00 +15°C° 0 mm 1 mps 767 mmHg 41%
    20:00 +14°C° 0 mm 2 mps 767 mmHg 45%
    21:00 +13°C° 0 mm 2 mps 767 mmHg 47%
    22:00 +13°C° 0 mm 2 mps 767 mmHg 50%
    23:00 +12°C° 0 mm 2 mps 767 mmHg 52%

    Tomorrow, 23 March, Saturday

    Time Temperature Precipitation Wind Pressure Humidity
    00:00 +12°C° 0 mm 2 mps 767 mmHg 54%
    01:00 +12°C° 0 mm 2 mps 767 mmHg 55%
    02:00 +11°C° 0 mm 1 mps 767 mmHg 57%
    03:00 +11°C° 0 mm 1 mps 767 mmHg 59%
    04:00 +10°C° 0 mm 1 mps 767 mmHg 62%
    05:00 +10°C° 0 mm 1 mps 766 mmHg 64%
    06:00 +10°C° 0 mm 1 mps 766 mmHg 64%
    07:00 +11°C° 0 mm 1 mps 766 mmHg 64%
    08:00 +11°C° 0 mm 1 mps 767 mmHg 64%
    09:00 +13°C° 0 mm 1 mps 766 mmHg 58%
    10:00 +15°C° 0 mm 2 mps 766 mmHg 53%
    11:00 +17°C° 0 mm 2 mps 765 mmHg 48%
    12:00 +18°C° 0 mm 2 mps 765 mmHg 45%
    13:00 +19°C° 0 mm 2 mps 765 mmHg 41%
    14:00 +20°C° 0 mm 2 mps 764 mmHg 38%
    15:00 +20°C° 0 mm 2 mps 764 mmHg 38%
    16:00 +20°C° 0 mm 2 mps 763 mmHg 38%
    17:00 +20°C° 0 mm 3 mps 763 mmHg 39%
    18:00 +19°C° 0 mm 3 mps 763 mmHg 44%
    19:00 +17°C° 0 mm 2 mps 764 mmHg 50%
    20:00 +16°C° 0 mm 2 mps 764 mmHg 56%
    21:00 +15°C° 0 mm 2 mps 764 mmHg 58%
    22:00 +14°C° 0 mm 2 mps 765 mmHg 61%
    23:00 +13°C° 0 mm 2 mps 765 mmHg 64%

    Day after tomorrow, 24 March, Sunday

    Time Temperature Precipitation Wind Pressure Humidity
    00:00 +13°C° 0 mm 2 mps 765 mmHg 65%
    01:00 +12°C° 0 mm 2 mps 765 mmHg 67%
    02:00 +10°C° 0 mm 2 mps 765 mmHg 68%
    03:00 +9°C° 0 mm 2 mps 765 mmHg 65%
    04:00 +8°C° 0 mm 2 mps 765 mmHg 63%
    05:00 +8°C° 0 mm 2 mps 765 mmHg 60%
    06:00 +8°C° 0 mm 2 mps 765 mmHg 57%
    07:00 +9°C° 0 mm 1 mps 765 mmHg 54%
    08:00 +10°C° 0 mm 1 mps 765 mmHg 51%
    09:00 +11°C° 0 mm 1 mps 765 mmHg 47%
    10:00 +13°C° 0 mm 1 mps 765 mmHg 44%
    11:00 +14°C° 0 mm 1 mps 765 mmHg 41%
    12:00 +16°C° 0 mm 1 mps 764 mmHg 39%
    13:00 +18°C° 0 mm 1 mps 764 mmHg 38%
    14:00 +19°C° 0 mm 1 mps 763 mmHg 37%
    15:00 +19°C° 0 mm 1 mps 763 mmHg 36%
    16:00 +19°C° 0 mm 1 mps 762 mmHg 35%
    17:00 +20°C° 0 mm 1 mps 762 mmHg 34%
    18:00 +18°C° 0 mm 1 mps 762 mmHg 38%
    19:00 +16°C° 0 mm 2 mps 762 mmHg 42%
    20:00 +15°C° 0 mm 2 mps 762 mmHg 46%
    21:00 +14°C° 0 mm 2 mps 762 mmHg 48%
    22:00 +14°C° 0 mm 2 mps 762 mmHg 50%
    23:00 +13°C° 0 mm 2 mps 762 mmHg 52%

    25 March, Monday

    Time Temperature Precipitation Wind Pressure Humidity
    00:00 +13°C° 0 mm 2 mps 762 mmHg 54%
    01:00 +13°C° 0 mm 2 mps 762 mmHg 55%
    02:00 +12°C° 0 mm 2 mps 761 mmHg 56%
    03:00 +12°C° 0 mm 2 mps 761 mmHg 56%
    04:00 +10°C° 0 mm 3 mps 761 mmHg 56%
    05:00 +10°C° 0 mm 3 mps 760 mmHg 56%
    06:00 +11°C° 0 mm 3 mps 760 mmHg 54%
    07:00 +12°C° 0 mm 4 mps 760 mmHg 51%
    08:00 +12°C° 0 mm 4 mps 760 mmHg 48%
    09:00 +15°C° 0 mm 5 mps 760 mmHg 46%
    10:00 +17°C° 0 mm 6 mps 759 mmHg 43%
    11:00 +20°C° 0 mm 7 mps 759 mmHg 41%
    12:00 +20°C° 0 mm 7 mps 759 mmHg 39%
    13:00 +21°C° 0 mm 7 mps 758 mmHg 37%
    14:00 +21°C° 0 mm 7 mps 758 mmHg 36%
    15:00 +21°C° 0 mm 7 mps 758 mmHg 37%
    16:00 +20°C° 0 mm 7 mps 757 mmHg 38%
    17:00 +20°C° 0 mm 7 mps 757 mmHg 40%
    18:00 +17°C° 0 mm 6 mps 757 mmHg 44%
    19:00 +15°C° 0 mm 5 mps 757 mmHg 49%
    20:00 +14°C° 0 mm 4 mps 758 mmHg 53%
    21:00 +13°C° 0 mm 4 mps 758 mmHg 53%
    22:00 +13°C° 0 mm 4 mps 758 mmHg 54%
    23:00 +12°C° 0 mm 5 mps 758 mmHg 54%

    26 March, Tuesday

    Time Temperature Precipitation Wind Pressure Humidity
    00:00 +12°C° 0 mm 5 mps 758 mmHg 52%
    01:00 +11°C° 0 mm 6 mps 758 mmHg 50%
    02:00 +10°C° 0 mm 7 mps 758 mmHg 48%
    03:00 +10°C° 0 mm 7 mps 759 mmHg 47%
    04:00 +9°C° 0 mm 8 mps 759 mmHg 47%
    05:00 +9°C° 0 mm 8 mps 759 mmHg 47%
    06:00 +9°C° 0 mm 8 mps 760 mmHg 49%
    07:00 +7°C° 0 mm 8 mps 760 mmHg 51%
    08:00 +7°C° 0 mm 8 mps 761 mmHg 53%
    09:00 +9°C° 0 mm 8 mps 761 mmHg 49%
    10:00 +8°C° 0 mm 9 mps 761 mmHg 44%
    11:00 +10°C° 0 mm 9 mps 761 mmHg 40%
    12:00 +11°C° 0 mm 8 mps 761 mmHg 37%
    13:00 +11°C° 0 mm 8 mps 761 mmHg 34%
    14:00 +12°C° 0 mm 8 mps 761 mmHg 31%
    15:00 +12°C° 0 mm 7 mps 761 mmHg 30%
    16:00 +13°C° 0 mm 6 mps 761 mmHg 30%
    17:00 +13°C° 0 mm 5 mps 761 mmHg 30%
    18:00 +12°C° 0 mm 4 mps 761 mmHg 34%
    19:00 +11°C° 0 mm 4 mps 762 mmHg 38%
    20:00 +10°C° 0 mm 3 mps 762 mmHg 42%
    21:00 +9°C° 0.2 mm 3 mps 763 mmHg 51%
    22:00 +9°C° 0.2 mm 3 mps 763 mmHg 60%
    23:00 +8°C° 0.2 mm 3 mps 763 mmHg 69%

    27 March, Wednesday

    Time Temperature Precipitation Wind Pressure Humidity
    00:00 +8°C° 0.3 mm 2 mps 764 mmHg 71%
    01:00 +7°C° 0.3 mm 2 mps 764 mmHg 74%
    02:00 +8°C° 0.3 mm 1 mps 765 mmHg 77%
    03:00 +8°C° 0.1 mm 1 mps 765 mmHg 79%
    04:00 +7°C° 0.1 mm 1 mps 765 mmHg 80%
    05:00 +7°C° 0.1 mm 1 mps 765 mmHg 81%
    06:00 +7°C° 0 mm 1 mps 766 mmHg 78%
    07:00 +8°C° 0 mm 1 mps 766 mmHg 75%
    08:00 +7°C° 0 mm 2 mps 767 mmHg 71%
    09:00 +8°C° 0 mm 2 mps 767 mmHg 63%
    10:00 +10°C° 0 mm 2 mps 767 mmHg 54%
    11:00 +11°C° 0 mm 3 mps 767 mmHg 45%
    12:00 +12°C° 0.1 mm 3 mps 767 mmHg 45%
    13:00 +12°C° 0.1 mm 3 mps 767 mmHg 44%
    14:00 +13°C° 0.1 mm 3 mps 767 mmHg 43%
    15:00 +14°C° 0 mm 2 mps 766 mmHg 43%
    16:00 +14°C° 0 mm 2 mps 766 mmHg 42%
    17:00 +14°C° 0 mm 2 mps 766 mmHg 42%
    18:00 +12°C° 0 mm 2 mps 767 mmHg 48%
    19:00 +10°C° 0 mm 2 mps 767 mmHg 54%
    20:00 +9°C° 0 mm 3 mps 768 mmHg 60%
    21:00 +8°C° 0 mm 2 mps 768 mmHg 62%
    22:00 +8°C° 0 mm 2 mps 768 mmHg 65%
    23:00 +8°C° 0 mm 1 mps 769 mmHg 67%
    Show more